User: anonymous
Location: Unspecified
(0.0000°N, 0.0000°E)
Time: 21:57:29
(UTC+02:00)
Language:

Centaur AC-64 - Orbit

View from above orbital plane
View from above orbital plane
View from above satellite
View from above satellite

Ground track
Ground track

The orbit data is extracted from the following two-line orbital elements,

1 15874U 85055B   14292.64158807  .00006665  00000-0  29390-2 0  5720
2 15874 023.2671 286.4183 6611001 309.0251 240.2493 03.13659933299607
Epoch (UTC): 19 October 2014 15:23:53
Eccentricity: 0.6611001
inclination: 23.2671°
perigee height: 303 km
apogee height: 26367 km
right ascension of ascending node: 286.4183°
argument of perigee: 309.0251°
revolutions per day: 3.13659933
mean anomaly at epoch: 240.2493°
orbit number at epoch: 29960

The dashed part of the orbit path shows where the satellite is in the earth's shadow,  

DLR